THAICOM 4

Last updated on Dec. 4, 2020, 6:15 a.m. UTC

1 28786U 05028A   20338.64077035 -.00000344  00000-0  00000+0 0  9995
2 28786   0.0180 332.9391 0002881 279.8176 170.3726  1.00270831 56055
UTC
Height (km)
Latitude
Longitude
Inclination
Orbital Period
UTC large
Height (km)
Speed (km/s)
/
Latitude / Longitude
Inclination (degrees)
Orbital Period (minutes)
Azimuth
Elevation
Range (km)
Doppler Factor
iOS Compass Heading
iOS Angle

Next 30 passes for location: Hong Kong

Rise time Rise Azimuth (degrees) Set time Set Azimuth (degrees) Duration Max altitude (degrees)

No matching passes for this satellites